User: anonymous   Login
Location: Unspecified
(0.0000°N, 0.0000°E)
Time: 08:55:49
(UTC+00:00)
Language:

STPSAT 2 (USA 217) - Orbit

View from above orbital plane
View from above orbital plane
View from above satellite
View from above satellite

Ground track
Ground track

The orbit data is extracted from the following two-line orbital elements,

1 37222U 10062A   19316.17800912 0.00000060  00000-0  82008-5 0    05
2 37222  71.9656  99.8599 0016000 306.3998  53.6001 14.78440087    04
Epoch (UTC): 12 November 2019 04:16:19
Eccentricity: 0.0016000
inclination: 71.9656°
perigee height: 623 km
apogee height: 645 km
right ascension of ascending node: 99.8599°
argument of perigee: 306.3998°
revolutions per day: 14.78440087
mean anomaly at epoch: 53.6001°
orbit number at epoch: 0

The dashed part of the orbit path shows where the satellite is in the earth's shadow,  

DLR